Location: Unspecified
(0.0000°N, 0.0000°E)
Time: 11:21:40
(UTC+00:00)

NOSS 3-1 (C) - Visible Passes

Search period start: 05 June 2023 00:00
Search period end: 15 June 2023 00:00
Orbit: 688 x 1519 km, 63.4° (Epoch: 31 May)

Date Brightness Start Highest point End Pass type
(mag) Time Alt. Az. Time Alt. Az. Time Alt. Az.
09 Jun 3.8 18:58:49 10° SSE 19:02:43 23° ESE 19:06:27 10° ENE visible
09 Jun 5.5 20:50:11 10° WSW 20:53:04 16° WNW 20:55:56 10° NNW visible
10 Jun 4.2 20:03:12 10° SW 20:07:41 37° WNW 20:12:05 10° N visible
11 Jun 2.7 19:17:25 10° SSW 19:22:19 88° ESE 19:27:05 10° NNE visible
12 Jun 3.3 18:32:26 10° S 18:36:57 36° ESE 18:41:17 10° NE visible
13 Jun 5.2 19:38:03 10° WSW 19:41:53 24° WNW 19:45:42 10° NNW visible
14 Jun 7.0 05:21:08 10° NNE 05:28:01 25° ENE 05:35:05 10° ESE visible
14 Jun 3.5 18:51:44 10° SW 18:56:31 57° WNW 19:01:12 10° NNE visible
